Location: Bremen
(53.0793°N, 8.8017°E)
Time: 20:33:55
(UTC+01:00)

S-56A Canister/Altair - Pass Details

Date: 04 December 2021
Orbit: 634 x 2499 km, 38.9° (Epoch: 26 January)

Event Time Altitude Azimuth Distance (km) Brightness Sun altitude
Rises 04:18:54 0° 258° (WSW) 3,946 - -34.9°
Reaches altitude 10° 04:23:13 10° 236° (SW) 2,632 - -34.3°
Maximum altitude 04:26:23 15° 204° (SSW) 2,089 - -33.8°
Drops below altitude 10° 04:29:09 10° 171° (S) 2,230 - -33.4°
Exits shadow 04:30:32 - 158° (SSE) 2,509 10.3 -33.2°
Sets 04:32:19 0° 146° (SE) 3,000 10.9 -32.9°
